| time (UTC) | temp C | wind direction | speed KPH | gust KPH | rain 1hr cm | rain 24hr cm | rain mn cm | humidity % | barometer mb |
| 20260506091743 | 19 | 159 | 0.0 | 0.0 | 0.00 | 0.00 | 0.00 | 51 | 1006.5 |
| 20260506091240 | 19 | 115 | 0.0 | 0.0 | 0.00 | 0.00 | 0.00 | 50 | 1006.7 |
| 20260506090738 | 19 | 115 | 0.0 | 0.0 | 0.00 | 0.00 | 0.00 | 50 | 1006.7 |
| 20260506090235 | 19 | 113 | 1.6 | 1.6 | 0.00 | 0.00 | 0.00 | 50 | 1006.7 |
| 20260506085732 | 19 | 113 | 1.6 | 1.6 | 0.00 | 0.00 | 0.00 | 50 | 1006.7 |
| 20260506085228 | 19 | 144 | 0.0 | 0.0 | 0.00 | 0.00 | 0.00 | 49 | 1006.9 |
| 20260506084725 | 19 | 144 | 0.0 | 0.0 | 0.00 | 0.00 | 0.00 | 49 | 1006.9 |
| 20260506084221 | 20 | 149 | 0.0 | 0.0 | 0.00 | 0.00 | 0.00 | 47 | 1006.8 |
| 20260506083718 | 20 | 149 | 0.0 | 0.0 | 0.00 | 0.00 | 0.00 | 47 | 1006.8 |
| 20260506083216 | 20 | 133 | 0.0 | 0.0 | 0.00 | 0.00 | 0.00 | 46 | 1006.9 |
| 20260506082713 | 20 | 133 | 0.0 | 0.0 | 0.00 | 0.00 | 0.00 | 46 | 1006.9 |
| 20260506082209 | 20 | 135 | 1.6 | 1.6 | 0.00 | 0.00 | 0.00 | 45 | 1007.0 |
| 20260506081706 | 20 | 135 | 1.6 | 1.6 | 0.00 | 0.00 | 0.00 | 45 | 1007.0 |
| 20260506081204 | 20 | 133 | 0.0 | 0.0 | 0.00 | 0.00 | 0.00 | 46 | 1006.8 |
| 20260506080701 | 20 | 133 | 0.0 | 0.0 | 0.00 | 0.00 | 0.00 | 46 | 1006.8 |
| 20260506080158 | 20 | 120 | 0.0 | 0.0 | 0.00 | 0.00 | 0.00 | 45 | 1007.0 |
| 20260506073142 | 20 | 162 | 1.6 | 1.6 | 0.00 | 0.00 | 0.00 | 44 | 1007.0 |
| 20260506072638 | 20 | 162 | 1.6 | 1.6 | 0.00 | 0.00 | 0.00 | 44 | 1007.0 |
| 20260506072136 | 20 | 140 | 1.6 | 1.6 | 0.00 | 0.00 | 0.00 | 45 | 1007.1 |
| 20260506071633 | 20 | 140 | 1.6 | 1.6 | 0.00 | 0.00 | 0.00 | 45 | 1007.1 |
| 20260506071131 | 20 | 127 | 1.6 | 1.6 | 0.00 | 0.00 | 0.00 | 43 | 1007.1 |
| 20260506070627 | 20 | 127 | 1.6 | 1.6 | 0.00 | 0.00 | 0.00 | 43 | 1007.1 |
| 20260506070125 | 20 | 180 | 0.0 | 0.0 | 0.00 | 0.00 | 0.00 | 44 | 1007.2 |
| 20260506062103 | 20 | 159 | 0.0 | 0.0 | 0.00 | 0.00 | 0.00 | 43 | 1007.7 |
| 20260506061558 | 20 | 159 | 0.0 | 0.0 | 0.00 | 0.00 | 0.00 | 43 | 1007.7 |
| 20260506061056 | 19 | 157 | 0.0 | 0.0 | 0.00 | 0.00 | 0.00 | 47 | 1007.5 |
| 20260506060554 | 19 | 157 | 0.0 | 0.0 | 0.00 | 0.00 | 0.00 | 47 | 1007.5 |
| 20260506051023 | 19 | 134 | 1.6 | 1.6 | 0.00 | 0.00 | 0.00 | 45 | 1008.1 |
| 20260506050521 | 19 | 134 | 1.6 | 1.6 | 0.00 | 0.00 | 0.00 | 45 | 1008.1 |
| 20260506045011 | 17 | 147 | 0.0 | 0.0 | 0.00 | 0.00 | 0.00 | 56 | 1008.0 |
| 20260506044509 | 17 | 147 | 0.0 | 0.0 | 0.00 | 0.00 | 0.00 | 56 | 1008.0 |
| 20260506044006 | 17 | 167 | 0.0 | 0.0 | 0.00 | 0.00 | 0.00 | 59 | 1008.1 |
| 20260506043503 | 17 | 167 | 0.0 | 0.0 | 0.00 | 0.00 | 0.00 | 59 | 1008.1 |
| 20260506043001 | 16 | 149 | 0.0 | 0.0 | 0.00 | 0.00 | 0.00 | 63 | 1008.0 |
| 20260506042500 | 16 | 149 | 0.0 | 0.0 | 0.00 | 0.00 | 0.00 | 63 | 1008.0 |
| 20260506041957 | 16 | 155 | 0.0 | 0.0 | 0.00 | 0.00 | 0.00 | 66 | 1008.2 |
| 20260506041455 | 16 | 155 | 0.0 | 0.0 | 0.00 | 0.00 | 0.00 | 66 | 1008.2 |
| 20260506040953 | 15 | 149 | 0.0 | 0.0 | 0.00 | 0.00 | 0.00 | 69 | 1008.1 |
| 20260506040450 | 15 | 149 | 0.0 | 0.0 | 0.00 | 0.00 | 0.00 | 69 | 1008.1 |
| 20260506035946 | 15 | 147 | 0.0 | 0.0 | 0.00 | 0.13 | 0.13 | 72 | 1008.3 |
| 20260506035443 | 15 | 147 | 0.0 | 0.0 | 0.00 | 0.13 | 0.13 | 72 | 1008.3 |
| 20260506034940 | 15 | 146 | 0.0 | 0.0 | 0.00 | 0.13 | 0.13 | 73 | 1008.1 |
| 20260506034438 | 15 | 146 | 0.0 | 0.0 | 0.00 | 0.13 | 0.13 | 73 | 1008.1 |
| 20260506033934 | 15 | 152 | 0.0 | 0.0 | 0.00 | 0.13 | 0.13 | 72 | 1008.4 |
| 20260506033432 | 15 | 152 | 0.0 | 0.0 | 0.00 | 0.13 | 0.13 | 72 | 1008.4 |
| 20260506032928 | 15 | 140 | 0.0 | 0.0 | 0.00 | 0.13 | 0.13 | 73 | 1008.1 |
| 20260506032425 | 15 | 140 | 0.0 | 0.0 | 0.00 | 0.13 | 0.13 | 73 | 1008.1 |
| 20260506031922 | 15 | 143 | 0.0 | 0.0 | 0.00 | 0.13 | 0.13 | 71 | 1008.2 |
| 20260506031419 | 15 | 143 | 0.0 | 0.0 | 0.00 | 0.13 | 0.13 | 71 | 1008.2 |
| 20260506030917 | 15 | 145 | 0.0 | 0.0 | 0.00 | 0.13 | 0.13 | 71 | 1008.2 |
| 20260506030415 | 15 | 145 | 0.0 | 0.0 | 0.00 | 0.13 | 0.13 | 71 | 1008.2 |
| 20260506025911 | 15 | 145 | 0.0 | 0.0 | 0.00 | 0.13 | 0.13 | 70 | 1008.2 |
| 20260506025408 | 15 | 145 | 0.0 | 0.0 | 0.00 | 0.13 | 0.13 | 70 | 1008.2 |
| 20260506024905 | 15 | 145 | 0.0 | 0.0 | 0.00 | 0.13 | 0.13 | 70 | 1008.3 |
| 20260506024402 | 15 | 145 | 0.0 | 0.0 | 0.00 | 0.13 | 0.13 | 70 | 1008.3 |
| 20260506023858 | 16 | 145 | 0.0 | 0.0 | 0.00 | 0.13 | 0.13 | 68 | 1008.3 |
| 20260506023355 | 16 | 145 | 0.0 | 0.0 | 0.00 | 0.13 | 0.13 | 68 | 1008.3 |
| 20260506022851 | 16 | 145 | 0.0 | 0.0 | 0.00 | 0.13 | 0.13 | 66 | 1008.2 |
| 20260506022349 | 16 | 145 | 0.0 | 0.0 | 0.00 | 0.13 | 0.13 | 66 | 1008.2 |
| 20260506021847 | 17 | 145 | 0.0 | 0.0 | 0.00 | 0.13 | 0.13 | 66 | 1008.4 |
| 20260506021344 | 17 | 145 | 0.0 | 0.0 | 0.00 | 0.13 | 0.13 | 66 | 1008.4 |
| 20260506020840 | 17 | 145 | 0.0 | 0.0 | 0.00 | 0.13 | 0.13 | 63 | 1008.3 |
| 20260506020338 | 17 | 145 | 0.0 | 0.0 | 0.00 | 0.13 | 0.13 | 63 | 1008.3 |
| 20260506015836 | 17 | 145 | 0.0 | 0.0 | 0.00 | 0.13 | 0.13 | 64 | 1008.4 |
| 20260506015333 | 17 | 145 | 0.0 | 0.0 | 0.00 | 0.13 | 0.13 | 64 | 1008.4 |
| 20260506014829 | 18 | 145 | 0.0 | 0.0 | 0.00 | 0.13 | 0.13 | 63 | 1008.2 |
| 20260506014326 | 18 | 145 | 0.0 | 0.0 | 0.00 | 0.13 | 0.13 | 63 | 1008.2 |
| 20260506013823 | 18 | 145 | 0.0 | 0.0 | 0.00 | 0.13 | 0.13 | 60 | 1008.2 |
| 20260506013320 | 18 | 145 | 0.0 | 0.0 | 0.00 | 0.13 | 0.13 | 60 | 1008.2 |
| 20260506012817 | 18 | 145 | 0.0 | 0.0 | 0.00 | 0.13 | 0.13 | 58 | 1008.2 |
| 20260506012314 | 18 | 145 | 0.0 | 0.0 | 0.00 | 0.13 | 0.13 | 58 | 1008.2 |
| 20260506011811 | 19 | 145 | 0.0 | 0.0 | 0.00 | 0.13 | 0.13 | 57 | 1007.9 |
| 20260506011308 | 19 | 145 | 0.0 | 0.0 | 0.00 | 0.13 | 0.13 | 57 | 1007.9 |
| 20260506010805 | 20 | 145 | 0.0 | 0.0 | 0.00 | 0.13 | 0.13 | 56 | 1007.6 |
| 20260506010303 | 20 | 145 | 0.0 | 0.0 | 0.00 | 0.13 | 0.13 | 56 | 1007.6 |
| 20260506005800 | 20 | 145 | 0.0 | 0.0 | 0.00 | 0.13 | 0.13 | 53 | 1007.8 |
| 20260506005257 | 20 | 145 | 0.0 | 0.0 | 0.00 | 0.13 | 0.13 | 53 | 1007.8 |
| 20260506004752 | 20 | 145 | 0.0 | 0.0 | 0.00 | 0.13 | 0.13 | 51 | 1007.5 |
| 20260506004250 | 21 | 145 | 0.0 | 0.0 | 0.00 | 0.13 | 0.13 | 51 | 1007.4 |
| 20260506003746 | 21 | 145 | 0.0 | 0.0 | 0.00 | 0.13 | 0.13 | 51 | 1007.4 |
| 20260506003243 | 21 | 145 | 0.0 | 0.0 | 0.00 | 0.13 | 0.13 | 50 | 1007.4 |
| 20260506002739 | 21 | 145 | 0.0 | 0.0 | 0.00 | 0.13 | 0.13 | 50 | 1007.4 |
| 20260506002235 | 22 | 144 | 0.0 | 0.0 | 0.00 | 0.13 | 0.13 | 45 | 1007.1 |
| 20260506001731 | 22 | 144 | 0.0 | 0.0 | 0.00 | 0.13 | 0.13 | 45 | 1007.1 |
| 20260506001229 | 22 | 145 | 0.0 | 0.0 | 0.00 | 0.13 | 0.13 | 48 | 1007.2 |
| 20260506000725 | 22 | 145 | 0.0 | 0.0 | 0.00 | 0.13 | 0.13 | 48 | 1007.2 |
| 20260506000223 | 22 | 145 | 0.0 | 0.0 | 0.00 | 0.13 | 0.13 | 47 | 1007.0 |
| 20260505235720 | 22 | 145 | 0.0 | 0.0 | 0.00 | 0.13 | 0.13 | 47 | 1007.0 |
| 20260505235218 | 23 | 145 | 0.0 | 0.0 | 0.00 | 0.13 | 0.13 | 47 | 1006.8 |
| 20260505234714 | 23 | 145 | 0.0 | 0.0 | 0.00 | 0.13 | 0.13 | 47 | 1006.8 |
| 20260505234212 | 23 | 137 | 0.0 | 0.0 | 0.00 | 0.13 | 0.13 | 41 | 1007.0 |
| 20260505233708 | 23 | 137 | 0.0 | 0.0 | 0.00 | 0.13 | 0.13 | 41 | 1007.0 |
| 20260505233206 | 23 | 137 | 0.0 | 0.0 | 0.00 | 0.13 | 0.13 | 39 | 1006.9 |
| 20260505232703 | 23 | 137 | 0.0 | 0.0 | 0.00 | 0.13 | 0.13 | 39 | 1006.9 |
| 20260505232201 | 23 | 141 | 0.0 | 0.0 | 0.00 | 0.13 | 0.13 | 40 | 1006.7 |
| 20260505231657 | 23 | 141 | 0.0 | 0.0 | 0.00 | 0.13 | 0.13 | 40 | 1006.7 |
| 20260505231156 | 24 | 156 | 0.0 | 0.0 | 0.00 | 0.13 | 0.13 | 39 | 1006.7 |
| 20260505230654 | 24 | 156 | 0.0 | 0.0 | 0.00 | 0.13 | 0.13 | 39 | 1006.7 |
| 20260505230150 | 24 | 28 | 1.6 | 3.2 | 0.00 | 0.13 | 0.13 | 36 | 1006.4 |
| 20260505225646 | 24 | 28 | 1.6 | 3.2 | 0.00 | 0.13 | 0.13 | 36 | 1006.4 |
| 20260505225143 | 24 | 127 | 0.0 | 0.0 | 0.00 | 0.13 | 0.13 | 37 | 1006.6 |
| 20260505224639 | 24 | 127 | 0.0 | 0.0 | 0.00 | 0.13 | 0.13 | 37 | 1006.6 |
| 20260505224137 | 25 | 179 | 1.6 | 1.6 | 0.00 | 0.13 | 0.13 | 38 | 1006.6 |
| 20260505223635 | 25 | 179 | 1.6 | 1.6 | 0.00 | 0.13 | 0.13 | 38 | 1006.6 |
| 20260505223130 | 25 | 163 | 0.0 | 0.0 | 0.00 | 0.13 | 0.13 | 36 | 1006.4 |
| 20260505222626 | 25 | 163 | 0.0 | 0.0 | 0.00 | 0.13 | 0.13 | 36 | 1006.4 |
| 20260505222123 | 25 | 158 | 0.0 | 0.0 | 0.00 | 0.13 | 0.13 | 36 | 1006.5 |
| 20260505221620 | 25 | 158 | 0.0 | 0.0 | 0.00 | 0.13 | 0.13 | 36 | 1006.5 |
| 20260505221116 | 25 | 150 | 0.0 | 1.6 | 0.00 | 0.13 | 0.13 | 38 | 1006.4 |
| 20260505220614 | 25 | 150 | 0.0 | 1.6 | 0.00 | 0.13 | 0.13 | 38 | 1006.4 |
| 20260505220112 | 24 | 169 | 0.0 | 0.0 | 0.00 | 0.13 | 0.13 | 37 | 1006.4 |
| 20260505215609 | 24 | 169 | 0.0 | 0.0 | 0.00 | 0.13 | 0.13 | 37 | 1006.4 |
| 20260505215107 | 24 | 168 | 0.0 | 0.0 | 0.00 | 0.13 | 0.13 | 40 | 1006.3 |
| 20260505214605 | 24 | 168 | 0.0 | 0.0 | 0.00 | 0.13 | 0.13 | 40 | 1006.3 |
| 20260505214101 | 25 | 120 | 1.6 | 3.2 | 0.00 | 0.13 | 0.13 | 35 | 1006.4 |
| 20260505213559 | 25 | 120 | 1.6 | 3.2 | 0.00 | 0.13 | 0.13 | 35 | 1006.4 |
| 20260505213056 | 25 | 159 | 0.0 | 0.0 | 0.00 | 0.13 | 0.13 | 35 | 1006.4 |
| 20260505212552 | 25 | 159 | 0.0 | 0.0 | 0.00 | 0.13 | 0.13 | 35 | 1006.4 |
| 20260505212050 | 25 | 155 | 3.2 | 3.2 | 0.00 | 0.13 | 0.13 | 32 | 1006.4 |
| 20260505211546 | 25 | 155 | 3.2 | 3.2 | 0.00 | 0.13 | 0.13 | 32 | 1006.4 |
| 20260505211043 | 26 | 135 | 0.0 | 1.6 | 0.00 | 0.13 | 0.13 | 33 | 1006.0 |
| 20260505210539 | 26 | 135 | 0.0 | 1.6 | 0.00 | 0.13 | 0.13 | 33 | 1006.0 |
| 20260505210037 | 26 | 68 | 1.6 | 1.6 | 0.00 | 0.13 | 0.13 | 33 | 1006.1 |
| 20260505205535 | 26 | 68 | 1.6 | 1.6 | 0.00 | 0.13 | 0.13 | 33 | 1006.1 |
| 20260505205032 | 26 | 178 | 1.6 | 3.2 | 0.00 | 0.13 | 0.13 | 31 | 1006.3 |
| 20260505204529 | 26 | 178 | 1.6 | 3.2 | 0.00 | 0.13 | 0.13 | 31 | 1006.3 |
| 20260505204026 | 26 | 115 | 1.6 | 3.2 | 0.00 | 0.13 | 0.13 | 32 | 1006.1 |
| 20260505203523 | 26 | 115 | 1.6 | 3.2 | 0.00 | 0.13 | 0.13 | 32 | 1006.1 |
| 20260505203020 | 26 | 173 | 3.2 | 3.2 | 0.00 | 0.13 | 0.13 | 30 | 1005.8 |
| 20260505202516 | 26 | 173 | 3.2 | 3.2 | 0.00 | 0.13 | 0.13 | 30 | 1005.8 |
| 20260505202012 | 26 | 153 | 4.8 | 6.4 | 0.00 | 0.13 | 0.13 | 32 | 1005.7 |
| 20260505201510 | 26 | 153 | 4.8 | 6.4 | 0.00 | 0.13 | 0.13 | 32 | 1005.7 |
| 20260505201007 | 27 | 111 | 8.0 | 11.3 | 0.00 | 0.13 | 0.13 | 33 | 1005.6 |
| 20260505200505 | 27 | 111 | 8.0 | 11.3 | 0.00 | 0.13 | 0.13 | 33 | 1005.6 |
| 20260505200000 | 27 | 177 | 3.2 | 3.2 | 0.00 | 0.13 | 0.13 | 33 | 1005.7 |
| 20260505195457 | 27 | 177 | 3.2 | 3.2 | 0.00 | 0.13 | 0.13 | 33 | 1005.7 |
| 20260505194955 | 27 | 98 | 3.2 | 3.2 | 0.00 | 0.13 | 0.13 | 30 | 1005.8 |
| 20260505194452 | 27 | 98 | 3.2 | 3.2 | 0.00 | 0.13 | 0.13 | 30 | 1005.8 |
| 20260505193952 | 27 | 209 | 4.8 | 4.8 | 0.00 | 0.13 | 0.13 | 31 | 1006.1 |
| 20260505193450 | 27 | 209 | 4.8 | 4.8 | 0.00 | 0.13 | 0.13 | 31 | 1006.1 |
| 20260505192947 | 27 | 105 | 4.8 | 6.4 | 0.00 | 0.13 | 0.13 | 32 | 1005.9 |
| 20260505192446 | 27 | 105 | 4.8 | 6.4 | 0.00 | 0.13 | 0.13 | 32 | 1005.9 |
| 20260505191942 | 26 | 103 | 4.8 | 6.4 | 0.00 | 0.13 | 0.13 | 33 | 1006.1 |
| 20260505191441 | 26 | 103 | 4.8 | 6.4 | 0.00 | 0.13 | 0.13 | 33 | 1006.1 |
| 20260505190937 | 26 | 172 | 1.6 | 1.6 | 0.00 | 0.13 | 0.13 | 33 | 1006.4 |
| 20260505190433 | 26 | 172 | 1.6 | 1.6 | 0.00 | 0.13 | 0.13 | 33 | 1006.4 |
| 20260505185928 | 27 | 117 | 1.6 | 1.6 | 0.00 | 0.13 | 0.13 | 32 | 1006.7 |
| 20260505185426 | 27 | 117 | 1.6 | 1.6 | 0.00 | 0.13 | 0.13 | 32 | 1006.7 |
| 20260505184922 | 27 | 158 | 4.8 | 4.8 | 0.00 | 0.13 | 0.13 | 31 | 1006.8 |
| 20260505184419 | 27 | 158 | 4.8 | 4.8 | 0.00 | 0.13 | 0.13 | 31 | 1006.8 |
| 20260505183916 | 27 | 113 | 3.2 | 4.8 | 0.00 | 0.13 | 0.13 | 31 | 1006.9 |
| 20260505183413 | 27 | 113 | 3.2 | 4.8 | 0.00 | 0.13 | 0.13 | 31 | 1006.9 |
| 20260505182909 | 26 | 65 | 3.2 | 4.8 | 0.00 | 0.13 | 0.13 | 29 | 1007.3 |
| 20260505182406 | 26 | 65 | 3.2 | 4.8 | 0.00 | 0.13 | 0.13 | 29 | 1007.3 |
| 20260505181903 | 27 | 182 | 6.4 | 11.3 | 0.00 | 0.13 | 0.13 | 29 | 1007.4 |
| 20260505181400 | 27 | 182 | 6.4 | 11.3 | 0.00 | 0.13 | 0.13 | 29 | 1007.4 |
| 20260505180857 | 27 | 132 | 1.6 | 1.6 | 0.00 | 0.13 | 0.13 | 34 | 1007.4 |
| 20260505180353 | 27 | 132 | 1.6 | 1.6 | 0.00 | 0.13 | 0.13 | 34 | 1007.4 |
| 20260505175850 | 27 | 138 | 6.4 | 9.7 | 0.00 | 0.13 | 0.13 | 33 | 1007.4 |
| 20260505175346 | 27 | 138 | 6.4 | 9.7 | 0.00 | 0.13 | 0.13 | 33 | 1007.4 |
| 20260505174843 | 26 | 100 | 3.2 | 3.2 | 0.00 | 0.13 | 0.13 | 33 | 1007.4 |
| 20260505174341 | 26 | 100 | 3.2 | 3.2 | 0.00 | 0.13 | 0.13 | 33 | 1007.4 |
| 20260505173836 | 26 | 155 | 3.2 | 3.2 | 0.00 | 0.13 | 0.13 | 36 | 1007.4 |
| 20260505173333 | 26 | 155 | 3.2 | 3.2 | 0.00 | 0.13 | 0.13 | 36 | 1007.4 |
| 20260505172830 | 26 | 142 | 1.6 | 3.2 | 0.00 | 0.13 | 0.13 | 36 | 1007.5 |
| 20260505172328 | 26 | 142 | 1.6 | 3.2 | 0.00 | 0.13 | 0.13 | 36 | 1007.5 |
| 20260505171827 | 26 | 166 | 1.6 | 1.6 | 0.00 | 0.13 | 0.13 | 38 | 1007.5 |
| 20260505171324 | 26 | 166 | 1.6 | 1.6 | 0.00 | 0.13 | 0.13 | 38 | 1007.5 |
| 20260505170821 | 26 | 111 | 1.6 | 1.6 | 0.00 | 0.13 | 0.13 | 40 | 1007.8 |
| 20260505170318 | 26 | 111 | 1.6 | 1.6 | 0.00 | 0.13 | 0.13 | 40 | 1007.8 |
| 20260505165813 | 26 | 135 | 1.6 | 1.6 | 0.00 | 0.13 | 0.13 | 41 | 1007.9 |
| 20260505165309 | 26 | 135 | 1.6 | 1.6 | 0.00 | 0.13 | 0.13 | 41 | 1007.9 |
| 20260505164805 | 26 | 156 | 3.2 | 3.2 | 0.00 | 0.13 | 0.13 | 38 | 1007.9 |
| 20260505164302 | 26 | 156 | 3.2 | 3.2 | 0.00 | 0.13 | 0.13 | 38 | 1007.9 |
| 20260505163800 | 26 | 82 | 3.2 | 3.2 | 0.00 | 0.13 | 0.13 | 36 | 1008.2 |
| 20260505163258 | 26 | 82 | 3.2 | 3.2 | 0.00 | 0.13 | 0.13 | 36 | 1008.2 |
| 20260505162756 | 26 | 152 | 1.6 | 3.2 | 0.00 | 0.13 | 0.13 | 39 | 1008.3 |
| 20260505162252 | 26 | 152 | 1.6 | 3.2 | 0.00 | 0.13 | 0.13 | 39 | 1008.3 |
| 20260505161750 | 26 | 104 | 1.6 | 1.6 | 0.00 | 0.13 | 0.13 | 39 | 1008.3 |
| 20260505161247 | 26 | 104 | 1.6 | 1.6 | 0.00 | 0.13 | 0.13 | 39 | 1008.3 |
| 20260505160744 | 25 | 151 | 1.6 | 1.6 | 0.00 | 0.13 | 0.13 | 43 | 1008.4 |
| 20260505160242 | 25 | 151 | 1.6 | 1.6 | 0.00 | 0.13 | 0.13 | 43 | 1008.4 |
| 20260505153221 | 25 | 130 | 4.8 | 4.8 | 0.00 | 0.13 | 0.13 | 39 | 1008.8 |
| 20260505152718 | 25 | 151 | 4.8 | 4.8 | 0.00 | 0.13 | 0.13 | 42 | 1008.7 |
| 20260505152214 | 25 | 151 | 4.8 | 4.8 | 0.00 | 0.13 | 0.13 | 42 | 1008.7 |
| 20260505151709 | 25 | 191 | 1.6 | 1.6 | 0.00 | 0.13 | 0.13 | 42 | 1008.8 |
| 20260505151207 | 25 | 191 | 1.6 | 1.6 | 0.00 | 0.13 | 0.13 | 42 | 1008.8 |
| 20260505150702 | 25 | 137 | 4.8 | 6.4 | 0.00 | 0.13 | 0.13 | 40 | 1008.8 |
| 20260505150200 | 25 | 137 | 4.8 | 6.4 | 0.00 | 0.13 | 0.13 | 40 | 1008.8 |
| 20260505140217 | 22 | 115 | 0.0 | 0.0 | 0.00 | 0.13 | 0.13 | 47 | 1008.9 |
| 20260505130141 | 20 | 100 | 0.0 | 0.0 | 0.00 | 0.13 | 0.13 | 58 | 1009.5 |
| 20260505124631 | 18 | 114 | 0.0 | 0.0 | 0.00 | 0.13 | 0.13 | 61 | 1009.5 |
| 20260505124127 | 18 | 114 | 0.0 | 0.0 | 0.00 | 0.13 | 0.13 | 63 | 1009.3 |
| 20260505123623 | 18 | 114 | 0.0 | 0.0 | 0.00 | 0.13 | 0.13 | 63 | 1009.3 |
| 20260505123120 | 18 | 114 | 0.0 | 0.0 | 0.00 | 0.13 | 0.13 | 60 | 1009.6 |
| 20260505122617 | 18 | 114 | 0.0 | 0.0 | 0.00 | 0.13 | 0.13 | 60 | 1009.6 |
| 20260505122114 | 17 | 118 | 0.0 | 0.0 | 0.00 | 0.13 | 0.13 | 68 | 1009.7 |
| 20260505121610 | 17 | 118 | 0.0 | 0.0 | 0.00 | 0.13 | 0.13 | 68 | 1009.7 |
| 20260505121107 | 17 | 118 | 0.0 | 0.0 | 0.00 | 0.13 | 0.13 | 70 | 1009.5 |
| 20260505120603 | 17 | 118 | 0.0 | 0.0 | 0.00 | 0.13 | 0.13 | 70 | 1009.5 |
| 20260505120059 | 17 | 127 | 0.0 | 0.0 | 0.00 | 0.13 | 0.13 | 75 | 1009.2 |
| 20260505115554 | 17 | 127 | 0.0 | 0.0 | 0.00 | 0.13 | 0.13 | 75 | 1009.2 |
| 20260505115051 | 16 | 127 | 0.0 | 0.0 | 0.00 | 0.13 | 0.13 | 79 | 1009.3 |
| 20260505114548 | 16 | 127 | 0.0 | 0.0 | 0.00 | 0.13 | 0.13 | 79 | 1009.3 |
| 20260505114045 | 15 | 128 | 0.0 | 0.0 | 0.00 | 0.13 | 0.13 | 79 | 1009.4 |
| 20260505113541 | 15 | 128 | 0.0 | 0.0 | 0.00 | 0.13 | 0.13 | 79 | 1009.4 |
| 20260505113038 | 15 | 128 | 0.0 | 0.0 | 0.00 | 0.13 | 0.13 | 83 | 1009.3 |
| 20260505112534 | 15 | 128 | 0.0 | 0.0 | 0.00 | 0.13 | 0.13 | 83 | 1009.3 |
| 20260505112033 | 13 | 128 | 0.0 | 0.0 | 0.00 | 0.13 | 0.13 | 85 | 1009.2 |
| 20260505111532 | 13 | 128 | 0.0 | 0.0 | 0.00 | 0.13 | 0.13 | 85 | 1009.2 |
| 20260505111028 | 13 | 128 | 0.0 | 0.0 | 0.00 | 0.13 | 0.13 | 89 | 1009.2 |
| 20260505110525 | 13 | 128 | 0.0 | 0.0 | 0.00 | 0.13 | 0.13 | 89 | 1009.2 |
| 20260505101957 | 11 | 132 | 0.0 | 0.0 | 0.00 | 0.13 | 0.13 | 94 | 1008.7 |
| 20260505101455 | 11 | 132 | 0.0 | 0.0 | 0.00 | 0.13 | 0.13 | 94 | 1008.7 |
| 20260505100952 | 11 | 132 | 0.0 | 0.0 | 0.00 | 0.13 | 0.13 | 94 | 1008.7 |
| 20260505100449 | 11 | 132 | 0.0 | 0.0 | 0.00 | 0.13 | 0.13 | 94 | 1008.7 |
| 20260505095945 | 11 | 132 | 0.0 | 0.0 | 0.00 | 0.13 | 0.13 | 94 | 1008.8 |
| 20260505095441 | 11 | 132 | 0.0 | 0.0 | 0.00 | 0.13 | 0.13 | 94 | 1008.8 |
| 20260505094938 | 11 | 132 | 0.0 | 0.0 | 0.00 | 0.13 | 0.13 | 93 | 1008.6 |
| 20260505094435 | 11 | 132 | 0.0 | 0.0 | 0.00 | 0.13 | 0.13 | 93 | 1008.6 |
| 20260505093931 | 11 | 132 | 0.0 | 0.0 | 0.00 | 0.13 | 0.13 | 93 | 1008.5 |
| 20260505093428 | 11 | 132 | 0.0 | 0.0 | 0.00 | 0.13 | 0.13 | 93 | 1008.5 |
| 20260505092925 | 11 | 132 | 0.0 | 0.0 | 0.00 | 0.13 | 0.13 | 93 | 1008.7 |
| 20260505092423 | 11 | 132 | 0.0 | 0.0 | 0.00 | 0.13 | 0.13 | 93 | 1008.7 |